sat.trackr.live / text

‹ back to catalog

SDA_1678

NORAD 65988 · 2025-230Q

PAYLOAD ACTIVE UNKNOWN

§ Identity

Operator
Country
US
Launch date
2025-10-15
Launch site
AFWTR
Launch vehicle
Mass (kg)
RCS (m²)

External: N2YO · Heavens-Above · Gunter

§ Orbital elements

Epoch: 2026-09-20T23:36:45.222336Z

Period
103.97 min
Inclination
81.2990°
Eccentricity
0.0001287
Mean motion
13.84992504 rev/d
Perigee alt
945.3 km
Apogee alt
947.2 km
Semi-major
7,324.4 km
B*
8.9518e-5
RAAN
122.7090°
Arg perigee
346.9008°
Mean anomaly
13.2115°
Rev number
4,708

§ Raw data

SDA_16781 65988U 25230Q   26263.98385674  .00000113  00000+0  89518-4 0  99962 65988  81.2990 122.7090 0001287 346.9008  13.2115 13.84992504 47083

JSON: /api/v1/satellites/65988 · /tle

For live sub-satellite position, see the globe view (requires WebGL).

§ Visibility from observer

Set your observer location to see the next 7 days of passes ≥ 10°. The values pass through the URL so the page stays shareable.

No JS? Fill the form by hand. The geolocation button needs JavaScript.